Weather History for Hilton Head Island, SC

Change the Weather History Date:

Monday, October 7, 2013

  Actual Average Record
Temperature  
Mean Temperature 78 °F -  
Max Temperature 84 °F 79 °F 89 °F (1962)
Min Temperature 73 °F 61 °F 48 °F (1964)
Cooling Degree Days 14    
Growing Degree Days 28 (Base 50)    
Moisture  
Dew Point 73 °F    
Average Humidity 87    
Maximum Humidity 100    
Minimum Humidity 62    
Precipitation  
Precipitation 0.00 in - - ()
Sea Level Pressure  
Sea Level Pressure 29.87 in    
Wind  
Wind Speed 4 mph (SSE)    
Max Wind Speed 8 mph    
Max Gust Speed -    
Visibility 10 miles    
Events      
Averages and records for this station are not official NWS values.
T = Trace of Precipitation, MM = Missing Value Source: NWS Daily Summary

Daily Weather History Graph

Daily Weather History Graph

Search for Another Location

Airport:

Trip Planner

Search our weather history database for the weather conditions in past years. The results will help you decide how hot, cold, wet, or windy it might be!

Date:

Astronomy

Oct. 07, 2013 Rise Set
Actual Time 7:20 AM EDT 6:59 PM EDT
Civil Twilight 6:56 AM EDT 7:24 PM EDT
Nautical Twilight 6:28 AM EDT 7:52 PM EDT
Astronomical Twilight 5:59 AM EDT 8:20 PM EDT
Moon 9:58 AM EDT (10/7) 8:54 PM EDT (10/7)
Length of Visible Light 12h 27m
Length of Day
11h 38m
Waxing Crescent, 8% of the Moon is Illuminated
Oct 7
Waxing Crescent
Oct 11
First Quarter
Oct 18
Full
Oct 26
Last Quarter
Nov 3
New

Hourly Weather History & Observations

Time (EDT) Temp. Heat Index Dew Point Humidity Pressure Visibility Wind Dir Wind Speed Gust Speed Precip Events Conditions
12:15 AM 77.0 °F - 75.2 °F 94% 29.92 in 10.0 mi SE 3.5 mph - 0.00 in   Clear
12:35 AM 77.0 °F - 75.2 °F 94% 29.91 in 10.0 mi SE 3.5 mph - 0.00 in   Clear
12:55 AM 77.0 °F - 75.2 °F 94% 29.91 in 10.0 mi SE 3.5 mph - 0.00 in   Clear
1:15 AM 77.0 °F - 75.2 °F 94% 29.90 in 10.0 mi Calm Calm - 0.00 in   Partly Cloudy
1:35 AM 77.0 °F - 75.2 °F 94% 29.89 in 10.0 mi SSE 3.5 mph - 0.00 in   Clear
1:55 AM 77.0 °F - 75.2 °F 94% 29.89 in 10.0 mi SSE 3.5 mph - 0.00 in   Partly Cloudy
2:15 AM 77.0 °F - 75.2 °F 94% 29.89 in 10.0 mi SSE 3.5 mph - 0.00 in   Partly Cloudy
2:35 AM 77.0 °F - 75.2 °F 94% 29.88 in 10.0 mi ESE 3.5 mph - 0.00 in   Scattered Clouds
2:55 AM 77.0 °F - 73.4 °F 89% 29.88 in 10.0 mi SE 4.6 mph - 0.00 in   Scattered Clouds
3:15 AM 77.0 °F - 73.4 °F 89% 29.87 in 10.0 mi SSE 5.8 mph - 0.00 in   Partly Cloudy
3:35 AM 78.8 °F - 73.4 °F 83% 29.86 in 10.0 mi SSE 5.8 mph - 0.00 in   Partly Cloudy
3:55 AM 78.8 °F - 75.2 °F 89% 29.86 in 10.0 mi SE 4.6 mph - 0.00 in   Scattered Clouds
4:15 AM 78.8 °F - 75.2 °F 89% 29.86 in 10.0 mi SE 4.6 mph - 0.00 in   Scattered Clouds
4:35 AM 78.8 °F - 75.2 °F 89% 29.85 in 10.0 mi SSE 3.5 mph - 0.00 in   Mostly Cloudy
4:55 AM 78.8 °F - 75.2 °F 89% 29.86 in 10.0 mi South 4.6 mph - 0.00 in   Mostly Cloudy
5:15 AM 77.0 °F - 75.2 °F 94% 29.85 in 10.0 mi SSE 5.8 mph - 0.00 in   Overcast
5:35 AM 78.8 °F - 75.2 °F 89% 29.86 in 10.0 mi SSE 5.8 mph - 0.00 in   Overcast
5:55 AM 77.0 °F - 73.4 °F 89% 29.86 in 10.0 mi South 6.9 mph - 0.00 in   Overcast
6:15 AM 75.2 °F - 71.6 °F 89% 29.86 in 10.0 mi SSE 3.5 mph - 0.00 in   Partly Cloudy
6:35 AM 73.4 °F - 73.4 °F 100% 29.86 in 10.0 mi South 3.5 mph - 0.00 in   Clear
6:50 AM 73.4 °F - 73.4 °F 100% 29.86 in 10.0 mi SSE 3.5 mph - N/A   Partly Cloudy
7:50 AM 75.2 °F - 73.4 °F 94% 29.86 in 10.0 mi Calm Calm - N/A   Scattered Clouds
9:50 AM 78.8 °F - 73.4 °F 83% 29.88 in 9.0 mi South 4.6 mph - N/A   Mostly Cloudy
10:50 AM 82.4 °F 87.2 °F 71.6 °F 70% 29.87 in 10.0 mi South 5.8 mph - N/A   Mostly Cloudy
11:50 AM 82.4 °F 87.2 °F 71.6 °F 70% 29.87 in 10.0 mi SW 8.1 mph - N/A   Mostly Cloudy
12:50 PM 84.2 °F 88.4 °F 69.8 °F 62% 29.85 in 10.0 mi WSW 5.8 mph - N/A   Scattered Clouds
1:50 PM 84.2 °F 92.3 °F 75.2 °F 74% 29.84 in 10.0 mi SSE 6.9 mph - N/A   Mostly Cloudy
2:50 PM 84.2 °F 92.3 °F 75.2 °F 74% 29.82 in 10.0 mi South 8.1 mph - N/A   Scattered Clouds
3:50 PM 82.4 °F 88.2 °F 73.4 °F 74% 29.82 in 10.0 mi South 6.9 mph - N/A   Mostly Cloudy
4:50 PM 80.6 °F 84.6 °F 71.6 °F 74% 29.82 in 10.0 mi Calm Calm - N/A   Mostly Cloudy
5:50 PM 80.6 °F 86.2 °F 75.2 °F 84% 29.82 in 10.0 mi Calm Calm - N/A   Mostly Cloudy
6:50 PM 77.0 °F - 69.8 °F 78% 29.84 in 10.0 mi Calm Calm - N/A   Mostly Cloudy
7:50 PM 75.2 °F - 69.8 °F 83% 29.86 in 10.0 mi Calm Calm - N/A   Clear
9:15 PM 73.4 °F - 69.8 °F 88% 29.86 in 10.0 mi Calm Calm - 0.00 in   Clear
9:35 PM 75.2 °F - 69.8 °F 83% 29.87 in 10.0 mi Calm Calm - 0.00 in   Clear
9:55 PM 73.4 °F - 69.8 °F 88% 29.87 in 10.0 mi NE 3.5 mph - 0.00 in   Light Drizzle
10:15 PM 73.4 °F - 71.6 °F 94% 29.87 in 10.0 mi Calm Calm - 0.00 in   Clear
10:35 PM 73.4 °F - 71.6 °F 94% 29.88 in 10.0 mi Calm Calm - 0.00 in   Scattered Clouds
10:55 PM 73.4 °F - 71.6 °F 94% 29.90 in 10.0 mi NW 4.6 mph - 0.00 in   Overcast
11:15 PM 75.2 °F - 71.6 °F 89% 29.90 in 10.0 mi NNW 5.8 mph - 0.00 in   Mostly Cloudy
11:35 PM 73.4 °F - 71.6 °F 94% 29.91 in 10.0 mi NW 3.5 mph - 0.00 in   Scattered Clouds
11:55 PM 73.4 °F - 71.6 °F 94% 29.90 in 10.0 mi North 5.8 mph - 0.00 in   Partly Cloudy